SNEZKA Weather Reports


time (UTC)temp
C
wind
direction
speed
KPH
gust
KPH
rain 1hr
cm
rain 24hr
cm
rain mn
cm
humidity
%
barometer
mb
20240723052012 7 320 35.4 0.0 0.00 0.00 0.00 81
20240723042011 7 320 35.4 0.0 0.00 0.00 0.00 87
20240723032013 8 320 57.9 0.0 0.00 0.00 0.00 81
20240723022013 8 320 57.9 0.0 0.00 0.00 0.00 87
20240723012010 8 320 49.9 0.0 0.00 0.00 0.00 93
20240723002011 8 310 46.7 0.0 0.00 0.00 0.00 99
20240722232011 8 320 35.4 0.0 0.00 0.00 0.00 99
20240722222010 10 340 32.2 0.0 0.00 0.00 0.00 99
20240722212012 10 340 46.7 0.0 0.00 0.00 0.00 99
20240722202011 10 320 41.8 0.0 0.00 0.00 0.00 99
20240722192013 10 310 41.8 0.0 0.00 0.00 0.00 99
20240722182013 12 320 35.4 0.0 0.00 0.00 0.00 99
20240722172011 12 330 29.0 0.0 0.00 0.00 0.00 99
20240722152059 12 320 32.2 0.0 0.00 0.00 0.00 93
20240722142115 12 320 25.7 0.0 0.00 0.00 0.00 99
20240722132059 12 310 19.3 0.0 0.00 0.00 0.00 99
20240722122058 12 300 14.5 0.0 0.00 0.00 0.00 99
20240722112028 13 300 19.3 0.0 0.00 0.00 0.00 93
20240722102012 12 250 11.3 0.0 0.00 0.00 0.00 93
20240722092028 13 290 11.3 0.0 0.00 0.00 0.00 82
20240722082029 12 360 3.2 0.0 0.00 0.00 0.00 71
20240722072044 12 210 11.3 0.0 0.00 0.00 0.00 71
20240722062018 15 300 19.3 0.0 0.00 0.00 0.00 54